Time,TemperatureF,DewpointF,PressureIn,WindDirection,WindDirectionDegrees,WindSpeedMPH,WindSpeedGustMPH,Humidity,HourlyPrecipIn,Conditions,Clouds,dailyrainin,SoftwareType,DateUTC
2013-03-31 00:00:00,46.4,19.3,24.39,East,90,10.3,17.0,34,0.00,,,0.00,WUHU216WMR200,2013-03-31 07:00:00,
2013-03-31 00:05:00,46.2,18.4,24.39,South,180,7.8,17.0,33,0.00,,,0.00,WUHU216WMR200,2013-03-31 07:05:00,
2013-03-31 00:10:00,46.2,17.7,24.39,South,180,10.5,15.2,32,0.00,,,0.00,WUHU216WMR200,2013-03-31 07:10:00,
2013-03-31 00:15:00,46.2,17.7,24.39,SE,135,12.5,16.6,32,0.00,,,0.00,WUHU216WMR200,2013-03-31 07:15:00,
2013-03-31 00:20:00,46.2,17.0,24.39,South,180,9.6,16.8,31,0.00,,,0.00,WUHU216WMR200,2013-03-31 07:20:00,
2013-03-31 00:25:00,46.0,16.8,24.39,South,180,11.2,16.8,31,0.00,,,0.00,WUHU216WMR200,2013-03-31 07:25:00,
2013-03-31 00:30:00,46.0,16.8,24.39,South,180,8.9,13.0,31,0.00,,,0.00,WUHU216WMR200,2013-03-31 07:30:00,
2013-03-31 00:35:00,46.0,16.8,24.39,South,180,9.6,13.0,31,0.00,,,0.00,WUHU216WMR200,2013-03-31 07:35:00,
2013-03-31 00:40:00,46.2,18.4,24.39,SSE,157,7.6,13.2,33,0.00,,,0.00,WUHU216WMR200,2013-03-31 07:40:00,
2013-03-31 00:45:00,46.4,19.3,24.39,SW,225,7.8,14.5,34,0.00,,,0.00,WUHU216WMR200,2013-03-31 07:45:00,
2013-03-31 00:50:00,46.0,17.5,24.39,SE,135,11.0,14.5,32,0.00,,,0.00,WUHU216WMR200,2013-03-31 07:50:00,
2013-03-31 00:55:00,46.0,16.8,24.39,East,90,9.8,12.1,31,0.00,,,0.00,WUHU216WMR200,2013-03-31 07:55:00,
2013-03-31 01:00:00,45.9,16.7,24.39,NNW,337,3.1,12.3,31,0.00,,,0.00,WUHU216WMR200,2013-03-31 08:00:00,
2013-03-31 01:05:00,45.9,16.7,24.39,South,180,6.0,13.2,31,0.00,,,0.00,WUHU216WMR200,2013-03-31 08:05:00,
2013-03-31 01:10:00,45.9,16.7,24.39,South,180,9.6,13.2,31,0.00,,,0.00,WUHU216WMR200,2013-03-31 08:10:00,
2013-03-31 01:15:00,45.9,16.7,24.39,ENE,67,8.7,12.3,31,0.00,,,0.00,WUHU216WMR200,2013-03-31 08:15:00,
2013-03-31 01:20:00,45.9,16.7,24.39,SE,135,6.0,12.8,31,0.00,,,0.00,WUHU216WMR200,2013-03-31 08:20:00,
2013-03-31 01:25:00,45.9,16.7,24.39,East,90,7.4,12.8,31,0.00,,,0.00,WUHU216WMR200,2013-03-31 08:25:00,
2013-03-31 01:30:00,45.9,16.7,24.39,SE,135,7.8,11.0,31,0.00,,,0.00,WUHU216WMR200,2013-03-31 08:30:00,
2013-03-31 01:35:00,45.9,16.7,24.39,South,180,5.6,11.4,31,0.00,,,0.00,WUHU216WMR200,2013-03-31 08:35:00,
2013-03-31 01:40:00,45.9,16.7,24.39,SW,225,4.9,11.9,31,0.00,,,0.00,WUHU216WMR200,2013-03-31 08:40:00,
2013-03-31 01:45:00,45.9,16.7,24.39,West,270,4.3,12.1,31,0.00,,,0.00,WUHU216WMR200,2013-03-31 08:45:00,
2013-03-31 01:50:00,45.9,16.7,24.39,NNW,337,12.1,15.9,31,0.00,,,0.00,WUHU216WMR200,2013-03-31 08:50:00,
2013-03-31 01:55:00,45.9,16.7,24.39,NNE,22,6.5,15.9,31,0.00,,,0.00,WUHU216WMR200,2013-03-31 08:55:00,
2013-03-31 02:00:00,45.9,16.7,24.39,NNE,22,3.6,15.4,31,0.00,,,0.00,WUHU216WMR200,2013-03-31 09:00:00,
2013-03-31 02:05:00,45.9,16.7,24.39,South,180,6.9,13.2,31,0.00,,,0.00,WUHU216WMR200,2013-03-31 09:05:00,
2013-03-31 02:10:00,45.9,16.7,24.39,SE,135,7.8,13.2,31,0.00,,,0.00,WUHU216WMR200,2013-03-31 09:10:00,
2013-03-31 02:15:00,45.9,16.7,24.39,East,90,8.5,13.2,31,0.00,,,0.00,WUHU216WMR200,2013-03-31 09:15:00,
2013-03-31 02:20:00,45.9,16.7,24.39,SE,135,8.9,12.8,31,0.00,,,0.00,WUHU216WMR200,2013-03-31 09:20:00,
2013-03-31 02:25:00,45.9,16.7,24.39,ENE,67,6.5,12.8,31,0.00,,,0.00,WUHU216WMR200,2013-03-31 09:25:00,
2013-03-31 02:30:00,45.9,16.7,24.39,SSE,157,8.5,12.8,31,0.00,,,0.00,WUHU216WMR200,2013-03-31 09:30:00,
2013-03-31 02:35:00,45.9,16.7,24.39,NE,45,5.6,12.8,31,0.00,,,0.00,WUHU216WMR200,2013-03-31 09:35:00,
2013-03-31 02:40:00,45.9,16.7,24.39,North,0,6.5,16.3,31,0.00,,,0.00,WUHU216WMR200,2013-03-31 09:40:00,
2013-03-31 02:45:00,45.9,16.7,24.39,SSE,157,8.5,16.3,31,0.00,,,0.00,WUHU216WMR200,2013-03-31 09:45:00,
2013-03-31 02:50:00,44.6,25.0,24.39,SSE,157,6.5,10.3,46,0.00,,,0.00,WUHU216WMR200,2013-03-31 09:50:00,
2013-03-31 02:55:00,44.4,24.3,24.39,South,180,6.0,10.3,45,0.00,,,0.00,WUHU216WMR200,2013-03-31 09:55:00,
2013-03-31 03:00:00,44.2,23.5,24.36,South,180,6.3,10.7,44,0.00,,,0.00,WUHU216WMR200,2013-03-31 10:00:00,
2013-03-31 03:05:00,44.2,24.1,24.36,SSW,202,6.3,10.7,45,0.00,,,0.00,WUHU216WMR200,2013-03-31 10:05:00,
2013-03-31 03:10:00,44.1,24.5,24.36,WSW,247,7.4,13.0,46,0.00,,,0.00,WUHU216WMR200,2013-03-31 10:10:00,
2013-03-31 03:15:00,44.1,25.6,24.36,South,180,8.1,13.0,48,0.00,,,0.00,WUHU216WMR200,2013-03-31 10:15:00,
2013-03-31 03:20:00,44.2,25.7,24.36,SSE,157,3.8,12.8,48,0.00,,,0.00,WUHU216WMR200,2013-03-31 10:20:00,
2013-03-31 03:25:00,44.2,25.7,24.36,SE,135,9.8,12.3,48,0.00,,,0.00,WUHU216WMR200,2013-03-31 10:25:00,
2013-03-31 03:30:00,44.2,25.7,24.39,ENE,67,3.1,10.5,48,0.00,,,0.00,WUHU216WMR200,2013-03-31 10:30:00,
2013-03-31 03:35:00,44.1,26.1,24.39,NE,45,9.2,10.7,49,0.00,,,0.00,WUHU216WMR200,2013-03-31 10:35:00,
2013-03-31 03:40:00,44.1,26.1,24.39,SE,135,7.4,10.7,49,0.00,,,0.00,WUHU216WMR200,2013-03-31 10:40:00,
2013-03-31 03:45:00,44.2,26.7,24.39,NE,45,6.0,10.7,50,0.00,,,0.00,WUHU216WMR200,2013-03-31 10:45:00,
2013-03-31 03:50:00,44.2,26.2,24.39,South,180,8.1,10.7,49,0.00,,,0.00,WUHU216WMR200,2013-03-31 10:50:00,
2013-03-31 03:55:00,44.2,26.2,24.39,NE,45,9.2,10.5,49,0.00,,,0.00,WUHU216WMR200,2013-03-31 10:55:00,
2013-03-31 04:00:00,44.4,26.9,24.39,NE,45,5.8,10.3,50,0.00,,,0.00,WUHU216WMR200,2013-03-31 11:00:00,
2013-03-31 04:05:00,44.6,27.1,24.39,South,180,12.1,12.1,50,0.00,,,0.00,WUHU216WMR200,2013-03-31 11:05:00,
2013-03-31 04:10:00,44.8,29.2,24.39,South,180,7.6,12.8,54,0.00,,,0.00,WUHU216WMR200,2013-03-31 11:10:00,
2013-03-31 04:15:00,44.6,28.0,24.36,East,90,8.1,13.2,52,0.00,,,0.00,WUHU216WMR200,2013-03-31 11:15:00,
2013-03-31 04:20:00,44.8,28.7,24.36,East,90,8.5,13.2,53,0.00,,,0.00,WUHU216WMR200,2013-03-31 11:20:00,
2013-03-31 04:25:00,45.0,31.2,24.36,SSE,157,7.8,13.0,58,0.00,,,0.00,WUHU216WMR200,2013-03-31 11:25:00,
2013-03-31 04:30:00,45.0,32.4,24.36,SW,225,8.7,13.0,61,0.00,,,0.00,WUHU216WMR200,2013-03-31 11:30:00,
2013-03-31 04:35:00,45.0,32.0,24.36,NE,45,5.8,13.0,60,0.00,,,0.00,WUHU216WMR200,2013-03-31 11:35:00,
2013-03-31 04:40:00,45.1,33.3,24.36,SW,225,6.5,10.5,63,0.00,,,0.00,WUHU216WMR200,2013-03-31 11:40:00,
2013-03-31 04:45:00,45.1,34.1,24.36,SSE,157,4.7,12.8,65,0.00,,,0.00,WUHU216WMR200,2013-03-31 11:45:00,
2013-03-31 04:50:00,45.1,35.3,24.36,South,180,10.3,12.8,68,0.00,,,0.00,WUHU216WMR200,2013-03-31 11:50:00,
2013-03-31 04:55:00,45.3,35.5,24.36,ENE,67,5.4,15.4,68,0.00,,,0.00,WUHU216WMR200,2013-03-31 11:55:00,
2013-03-31 05:00:00,45.1,34.9,24.36,SSW,202,7.4,15.4,67,0.00,,,0.00,WUHU216WMR200,2013-03-31 12:00:00,
2013-03-31 05:05:00,45.1,35.3,24.36,South,180,11.0,13.0,68,0.00,,,0.00,WUHU216WMR200,2013-03-31 12:05:00,
2013-03-31 05:10:00,45.3,35.1,24.36,SW,225,7.4,13.0,67,0.00,,,0.00,WUHU216WMR200,2013-03-31 12:10:00,
2013-03-31 05:15:00,45.3,34.7,24.36,ENE,67,10.7,13.2,66,0.00,,,0.00,WUHU216WMR200,2013-03-31 12:15:00,
2013-03-31 05:20:00,45.3,34.3,24.36,SSE,157,6.0,13.2,65,0.00,,,0.00,WUHU216WMR200,2013-03-31 12:20:00,
2013-03-31 05:25:00,45.1,32.9,24.36,SW,225,10.3,16.1,62,0.00,,,0.00,WUHU216WMR200,2013-03-31 12:25:00,
2013-03-31 05:30:00,45.1,33.7,24.36,SSE,157,11.0,16.1,64,0.00,,,0.00,WUHU216WMR200,2013-03-31 12:30:00,
2013-03-31 05:35:00,44.8,31.8,24.36,East,90,10.3,12.3,60,0.00,,,0.00,WUHU216WMR200,2013-03-31 12:35:00,
2013-03-31 05:40:00,44.8,33.8,24.36,South,180,8.1,12.1,65,0.00,,,0.00,WUHU216WMR200,2013-03-31 12:40:00,
2013-03-31 05:45:00,44.8,34.6,24.36,ESE,112,8.5,12.1,67,0.00,,,0.00,WUHU216WMR200,2013-03-31 12:45:00,
2013-03-31 05:50:00,44.6,34.4,24.36,SSE,157,7.6,13.2,67,0.00,,,0.00,WUHU216WMR200,2013-03-31 12:50:00,
2013-03-31 05:55:00,44.8,35.7,24.36,SE,135,12.8,13.2,70,0.00,,,0.00,WUHU216WMR200,2013-03-31 12:55:00,
2013-03-31 06:00:00,45.0,36.2,24.36,SE,135,8.9,15.2,71,0.00,,,0.00,WUHU216WMR200,2013-03-31 13:00:00,
2013-03-31 06:05:00,44.8,35.7,24.36,North,0,10.5,15.2,70,0.00,,,0.00,WUHU216WMR200,2013-03-31 13:05:00,
2013-03-31 06:10:00,44.6,35.1,24.36,SSW,202,5.6,12.8,69,0.00,,,0.00,WUHU216WMR200,2013-03-31 13:10:00,
2013-03-31 06:15:00,44.4,35.0,24.39,SE,135,6.0,12.8,69,0.00,,,0.00,WUHU216WMR200,2013-03-31 13:15:00,
2013-03-31 06:20:00,44.1,30.3,24.39,SW,225,4.0,12.3,58,0.00,,,0.00,WUHU216WMR200,2013-03-31 13:20:00,
2013-03-31 06:25:00,43.3,27.8,24.39,SSE,157,5.6,8.1,54,0.00,,,0.00,WUHU216WMR200,2013-03-31 13:25:00,
2013-03-31 06:30:00,42.8,26.8,24.39,ENE,67,5.4,10.3,53,0.00,,,0.00,WUHU216WMR200,2013-03-31 13:30:00,
2013-03-31 06:35:00,42.6,26.2,24.39,NE,45,8.7,10.3,52,0.00,,,0.00,WUHU216WMR200,2013-03-31 13:35:00,
2013-03-31 06:40:00,42.4,26.0,24.39,SSE,157,6.0,11.9,52,0.00,,,0.00,WUHU216WMR200,2013-03-31 13:40:00,
2013-03-31 06:45:00,42.3,26.4,24.39,North,0,4.3,11.9,53,0.00,,,0.00,WUHU216WMR200,2013-03-31 13:45:00,
2013-03-31 06:50:00,42.4,26.9,24.39,ESE,112,6.3,13.2,54,0.00,,,0.00,WUHU216WMR200,2013-03-31 13:50:00,
2013-03-31 06:55:00,42.8,32.3,24.39,ESE,112,11.0,13.2,66,0.00,,,0.00,WUHU216WMR200,2013-03-31 13:55:00,
2013-03-31 07:00:00,43.3,35.0,24.39,SSE,157,10.3,12.1,72,0.00,,,0.00,WUHU216WMR200,2013-03-31 14:00:00,
2013-03-31 07:05:00,43.5,32.6,24.39,SE,135,7.4,12.5,65,0.00,,,0.00,WUHU216WMR200,2013-03-31 14:05:00,
2013-03-31 07:10:00,43.7,32.0,24.39,SW,225,6.5,12.5,63,0.00,,,0.00,WUHU216WMR200,2013-03-31 14:10:00,
2013-03-31 07:15:00,43.7,33.6,24.39,WSW,247,3.4,10.5,67,0.00,,,0.00,WUHU216WMR200,2013-03-31 14:15:00,
2013-03-31 07:20:00,43.9,33.7,24.39,SSW,202,3.8,10.5,67,0.00,,,0.00,WUHU216WMR200,2013-03-31 14:20:00,
2013-03-31 07:25:00,43.5,29.8,24.39,NE,45,4.7,12.3,58,0.00,,,0.00,WUHU216WMR200,2013-03-31 14:25:00,
2013-03-31 07:30:00,43.5,28.4,24.39,SSW,202,4.3,12.3,55,0.00,,,0.00,WUHU216WMR200,2013-03-31 14:30:00,
2013-03-31 07:35:00,43.3,27.8,24.39,SE,135,3.8,8.5,54,0.00,,,0.00,WUHU216WMR200,2013-03-31 14:35:00,
2013-03-31 07:40:00,43.3,27.8,24.39,ESE,112,4.0,10.3,54,0.00,,,0.00,WUHU216WMR200,2013-03-31 14:40:00,
2013-03-31 07:45:00,43.5,28.0,24.39,NE,45,3.4,10.3,54,0.00,,,0.00,WUHU216WMR200,2013-03-31 14:45:00,
2013-03-31 07:50:00,43.9,28.3,24.39,SE,135,2.5,8.7,54,0.00,,,0.00,WUHU216WMR200,2013-03-31 14:50:00,
2013-03-31 07:55:00,44.2,28.6,24.39,SE,135,1.6,7.6,54,0.00,,,0.00,WUHU216WMR200,2013-03-31 14:55:00,
2013-03-31 08:00:00,44.4,28.3,24.39,SSE,157,5.4,9.6,53,0.00,,,0.00,WUHU216WMR200,2013-03-31 15:00:00,
2013-03-31 08:05:00,45.0,28.4,24.39,SE,135,8.1,9.6,52,0.00,,,0.00,WUHU216WMR200,2013-03-31 15:05:00,
2013-03-31 08:10:00,44.4,27.9,24.39,East,90,5.4,8.1,52,0.00,,,0.00,WUHU216WMR200,2013-03-31 15:10:00,
2013-03-31 08:15:00,44.2,27.7,24.39,ENE,67,7.8,11.9,52,0.00,,,0.00,WUHU216WMR200,2013-03-31 15:15:00,
2013-03-31 08:20:00,44.8,27.7,24.39,South,180,3.8,11.9,51,0.00,,,0.00,WUHU216WMR200,2013-03-31 15:20:00,
2013-03-31 08:25:00,45.7,28.6,24.39,East,90,6.9,9.8,51,0.00,,,0.00,WUHU216WMR200,2013-03-31 15:25:00,
2013-03-31 08:30:00,46.0,28.9,24.39,SE,135,8.1,12.5,51,0.00,,,0.00,WUHU216WMR200,2013-03-31 15:30:00,
2013-03-31 08:35:00,46.4,29.7,24.39,NE,45,7.8,12.5,52,0.00,,,0.00,WUHU216WMR200,2013-03-31 15:35:00,
2013-03-31 08:40:00,47.3,30.6,24.39,NE,45,4.0,9.4,52,0.00,,,0.00,WUHU216WMR200,2013-03-31 15:40:00,
2013-03-31 08:45:00,47.1,29.9,24.39,East,90,2.9,8.5,51,0.00,,,0.00,WUHU216WMR200,2013-03-31 15:45:00,
2013-03-31 08:50:00,47.1,30.4,24.39,South,180,7.4,12.3,52,0.00,,,0.00,WUHU216WMR200,2013-03-31 15:50:00,
2013-03-31 08:55:00,47.7,30.4,24.39,SSW,202,3.4,12.3,51,0.00,,,0.00,WUHU216WMR200,2013-03-31 15:55:00,
2013-03-31 09:00:00,47.8,30.0,24.39,East,90,7.8,9.8,50,0.00,,,0.00,WUHU216WMR200,2013-03-31 16:00:00,
2013-03-31 09:05:00,47.7,29.9,24.39,South,180,5.6,12.8,50,0.00,,,0.00,WUHU216WMR200,2013-03-31 16:05:00,
2013-03-31 09:10:00,47.8,29.5,24.39,SSE,157,11.4,12.8,49,0.00,,,0.00,WUHU216WMR200,2013-03-31 16:10:00,
2013-03-31 09:15:00,47.7,29.9,24.39,South,180,7.8,11.4,50,0.00,,,0.00,WUHU216WMR200,2013-03-31 16:15:00,
2013-03-31 09:20:00,48.0,30.2,24.39,NNE,22,6.3,12.3,50,0.00,,,0.00,WUHU216WMR200,2013-03-31 16:20:00,
2013-03-31 09:25:00,48.6,30.8,24.39,SSW,202,6.5,12.3,50,0.00,,,0.00,WUHU216WMR200,2013-03-31 16:25:00,
2013-03-31 09:30:00,49.6,31.7,24.39,East,90,6.9,9.4,50,0.00,,,0.00,WUHU216WMR200,2013-03-31 16:30:00,
2013-03-31 09:35:00,49.6,31.7,24.39,SSE,157,10.5,10.5,50,0.00,,,0.00,WUHU216WMR200,2013-03-31 16:35:00,
2013-03-31 09:40:00,50.7,32.2,24.39,SE,135,4.3,11.0,49,0.00,,,0.00,WUHU216WMR200,2013-03-31 16:40:00,
2013-03-31 09:45:00,51.3,32.7,24.39,South,180,6.5,12.3,49,0.00,,,0.00,WUHU216WMR200,2013-03-31 16:45:00,
2013-03-31 09:50:00,51.1,32.6,24.39,SSW,202,5.6,12.3,49,0.00,,,0.00,WUHU216WMR200,2013-03-31 16:50:00,
2013-03-31 09:55:00,51.1,32.6,24.39,SW,225,4.3,12.8,49,0.00,,,0.00,WUHU216WMR200,2013-03-31 16:55:00,
2013-03-31 10:00:00,51.6,33.0,24.39,East,90,6.7,15.4,49,0.00,,,0.00,WUHU216WMR200,2013-03-31 17:00:00,
2013-03-31 10:05:00,51.1,32.6,24.39,East,90,14.5,15.4,49,0.00,,,0.00,WUHU216WMR200,2013-03-31 17:05:00,
2013-03-31 10:10:00,51.6,32.5,24.39,South,180,9.8,14.5,48,0.00,,,0.00,WUHU216WMR200,2013-03-31 17:10:00,
2013-03-31 10:15:00,52.2,32.5,24.39,North,0,10.1,12.8,47,0.00,,,0.00,WUHU216WMR200,2013-03-31 17:15:00,
2013-03-31 10:20:00,53.4,33.6,24.39,South,180,10.1,12.8,47,0.00,,,0.00,WUHU216WMR200,2013-03-31 17:20:00,
2013-03-31 10:25:00,54.1,33.7,24.39,SSW,202,8.5,10.3,46,0.00,,,0.00,WUHU216WMR200,2013-03-31 17:25:00,
2013-03-31 10:30:00,54.7,33.1,24.42,North,0,7.8,10.3,44,0.00,,,0.00,WUHU216WMR200,2013-03-31 17:30:00,
2013-03-31 10:35:00,55.2,33.0,24.42,SSE,157,6.5,12.1,43,0.00,,,0.00,WUHU216WMR200,2013-03-31 17:35:00,
2013-03-31 10:40:00,55.2,33.0,24.42,SSW,202,5.4,12.1,43,0.00,,,0.00,WUHU216WMR200,2013-03-31 17:40:00,
2013-03-31 10:45:00,54.7,31.3,24.39,NNW,337,10.3,11.0,41,0.00,,,0.00,WUHU216WMR200,2013-03-31 17:45:00,
2013-03-31 10:50:00,54.3,29.7,24.39,West,270,9.8,13.0,39,0.00,,,0.00,WUHU216WMR200,2013-03-31 17:50:00,
2013-03-31 10:55:00,54.5,31.1,24.39,SSE,157,6.0,13.0,41,0.00,,,0.00,WUHU216WMR200,2013-03-31 17:55:00,
2013-03-31 11:00:00,55.0,31.6,24.39,SE,135,12.1,12.5,41,0.00,,,0.00,WUHU216WMR200,2013-03-31 18:00:00,
2013-03-31 11:05:00,54.1,30.1,24.39,ENE,67,7.8,15.9,40,0.00,,,0.00,WUHU216WMR200,2013-03-31 18:05:00,
2013-03-31 11:11:00,55.2,31.1,24.39,SSW,202,5.8,15.9,40,0.00,,,0.00,WUHU216WMR200,2013-03-31 18:11:00,
2013-03-31 11:16:00,54.7,30.7,24.42,East,90,8.5,15.4,40,0.00,,,0.00,WUHU216WMR200,2013-03-31 18:16:00,
2013-03-31 11:21:00,53.8,29.9,24.42,SE,135,8.7,14.5,40,0.00,,,0.00,WUHU216WMR200,2013-03-31 18:21:00,
2013-03-31 11:26:00,53.8,29.9,24.42,South,180,14.5,14.8,40,0.00,,,0.00,WUHU216WMR200,2013-03-31 18:26:00,
2013-03-31 11:31:00,53.4,30.1,24.39,SSW,202,13.9,14.8,41,0.00,,,0.00,WUHU216WMR200,2013-03-31 18:31:00,
2013-03-31 11:36:00,53.1,29.8,24.39,West,270,13.0,19.0,41,0.00,,,0.00,WUHU216WMR200,2013-03-31 18:36:00,
2013-03-31 11:41:00,52.9,30.3,24.39,NNE,22,10.7,19.0,42,0.00,,,0.00,WUHU216WMR200,2013-03-31 18:41:00,
2013-03-31 11:46:00,52.9,30.9,24.39,SSE,157,7.4,15.2,43,0.00,,,0.00,WUHU216WMR200,2013-03-31 18:46:00,
2013-03-31 11:51:00,53.4,30.7,24.39,ESE,112,6.5,13.0,42,0.00,,,0.00,WUHU216WMR200,2013-03-31 18:51:00,
2013-03-31 11:56:00,53.2,30.5,24.39,ESE,112,12.8,13.4,42,0.00,,,0.00,WUHU216WMR200,2013-03-31 18:56:00,
2013-03-31 12:01:00,53.2,31.1,24.39,ENE,67,17.4,17.4,43,0.00,,,0.00,WUHU216WMR200,2013-03-31 19:01:00,
2013-03-31 12:06:00,53.1,31.1,24.39,SSE,157,14.8,17.4,43,0.00,,,0.00,WUHU216WMR200,2013-03-31 19:06:00,
2013-03-31 12:11:00,52.5,32.2,24.39,ESE,112,6.5,17.4,46,0.00,,,0.00,WUHU216WMR200,2013-03-31 19:11:00,
2013-03-31 12:16:00,53.1,32.8,24.39,SE,135,15.4,15.4,46,0.00,,,0.00,WUHU216WMR200,2013-03-31 19:16:00,
2013-03-31 12:21:00,53.1,33.3,24.39,SE,135,12.8,17.7,47,0.00,,,0.00,WUHU216WMR200,2013-03-31 19:21:00,
2013-03-31 12:26:00,52.5,32.8,24.39,ENE,67,16.6,17.7,47,0.00,,,0.00,WUHU216WMR200,2013-03-31 19:26:00,
2013-03-31 12:32:00,52.9,32.6,24.39,East,90,13.0,19.5,46,0.00,,,0.00,WUHU216WMR200,2013-03-31 19:32:00,
2013-03-31 12:37:00,52.9,33.1,24.39,ENE,67,10.5,19.5,47,0.00,,,0.00,WUHU216WMR200,2013-03-31 19:37:00,
2013-03-31 12:42:00,53.4,34.1,24.39,SSW,202,7.2,17.0,48,0.00,,,0.00,WUHU216WMR200,2013-03-31 19:42:00,
2013-03-31 12:47:00,53.1,33.3,24.36,SSE,157,8.5,17.2,47,0.00,,,0.00,WUHU216WMR200,2013-03-31 19:47:00,
2013-03-31 12:52:00,53.2,32.9,24.36,ENE,67,13.0,19.9,46,0.00,,,0.00,WUHU216WMR200,2013-03-31 19:52:00,
2013-03-31 12:57:00,53.8,33.4,24.36,ENE,67,7.8,19.9,46,0.00,,,0.00,WUHU216WMR200,2013-03-31 19:57:00,
2013-03-31 13:02:00,52.7,33.0,24.36,NE,45,13.2,15.9,47,0.00,,,0.00,WUHU216WMR200,2013-03-31 20:02:00,
2013-03-31 13:07:00,51.8,32.7,24.36,East,90,9.8,15.9,48,0.00,,,0.00,WUHU216WMR200,2013-03-31 20:07:00,
2013-03-31 13:12:00,50.4,32.9,24.36,NNE,22,8.7,13.4,51,0.00,,,0.00,WUHU216WMR200,2013-03-31 20:12:00,
2013-03-31 13:17:00,51.6,33.5,24.39,NW,315,8.7,13.4,50,0.00,,,0.00,WUHU216WMR200,2013-03-31 20:17:00,
2013-03-31 13:22:00,52.0,33.9,24.39,South,180,6.3,12.5,50,0.00,,,0.00,WUHU216WMR200,2013-03-31 20:22:00,
2013-03-31 13:27:00,51.3,33.3,24.39,ESE,112,7.8,12.5,50,0.00,,,0.00,WUHU216WMR200,2013-03-31 20:27:00,
2013-03-31 13:32:00,51.3,32.7,24.36,East,90,17.9,17.9,49,0.00,,,0.00,WUHU216WMR200,2013-03-31 20:32:00,
2013-03-31 13:37:00,52.0,33.4,24.36,ENE,67,11.0,17.9,49,0.00,,,0.00,WUHU216WMR200,2013-03-31 20:37:00,
2013-03-31 13:42:00,50.9,33.9,24.36,SW,225,6.5,17.9,52,0.00,,,0.00,WUHU216WMR200,2013-03-31 20:42:00,
2013-03-31 13:47:00,50.7,34.2,24.39,SE,135,5.8,15.2,53,0.00,,,0.00,WUHU216WMR200,2013-03-31 20:47:00,
2013-03-31 13:52:00,49.5,33.1,24.39,North,0,5.8,15.2,53,0.00,,,0.00,WUHU216WMR200,2013-03-31 20:52:00,
2013-03-31 13:57:00,48.9,34.8,24.39,South,180,12.3,16.6,58,0.00,,,0.00,WUHU216WMR200,2013-03-31 20:57:00,
2013-03-31 14:02:00,48.9,36.1,24.33,NNE,22,5.6,16.6,61,0.00,,,0.00,WUHU216WMR200,2013-03-31 21:02:00,
2013-03-31 14:07:00,49.1,35.9,24.33,NE,45,5.4,12.5,60,0.00,,,0.00,WUHU216WMR200,2013-03-31 21:07:00,
2013-03-31 14:12:00,49.8,35.7,24.33,SE,135,4.9,16.8,58,0.00,,,0.00,WUHU216WMR200,2013-03-31 21:12:00,
2013-03-31 14:17:00,48.6,35.0,24.36,SSE,157,6.3,16.8,59,0.00,,,0.00,WUHU216WMR200,2013-03-31 21:17:00,
2013-03-31 14:22:00,49.5,36.7,24.36,SSE,157,2.9,14.1,61,0.00,,,0.00,WUHU216WMR200,2013-03-31 21:22:00,
2013-03-31 14:27:00,49.3,36.1,24.36,South,180,6.7,10.1,60,0.00,,,0.00,WUHU216WMR200,2013-03-31 21:27:00,
2013-03-31 14:32:00,48.6,35.8,24.33,ESE,112,7.6,14.5,61,0.00,,,0.00,WUHU216WMR200,2013-03-31 21:32:00,
2013-03-31 14:37:00,48.7,36.4,24.33,SSW,202,3.8,14.5,62,0.00,,,0.00,WUHU216WMR200,2013-03-31 21:37:00,
2013-03-31 14:42:00,48.6,36.3,24.33,NW,315,5.6,13.6,62,0.00,,,0.00,WUHU216WMR200,2013-03-31 21:42:00,
2013-03-31 14:48:00,48.7,36.8,24.36,NNE,22,8.1,13.6,63,0.00,,,0.00,WUHU216WMR200,2013-03-31 21:48:00,
2013-03-31 14:53:00,48.4,36.1,24.36,SSE,157,4.9,14.5,62,0.00,,,0.00,WUHU216WMR200,2013-03-31 21:53:00,
2013-03-31 14:58:00,48.4,36.1,24.36,SSE,157,5.6,14.5,62,0.00,,,0.00,WUHU216WMR200,2013-03-31 21:58:00,
2013-03-31 15:03:00,48.0,37.3,24.36,ENE,67,6.3,11.0,66,0.00,,,0.00,WUHU216WMR200,2013-03-31 22:03:00,
2013-03-31 15:08:00,47.7,38.1,24.36,NE,45,6.0,11.0,69,0.00,,,0.00,WUHU216WMR200,2013-03-31 22:08:00,
2013-03-31 15:13:00,47.5,39.0,24.36,ENE,67,9.8,11.0,72,0.00,,,0.00,WUHU216WMR200,2013-03-31 22:13:00,
2013-03-31 15:17:00,47.7,38.8,24.36,SW,225,6.0,11.9,71,0.00,,,0.00,WUHU216WMR200,2013-03-31 22:17:00,
2013-03-31 15:22:00,47.7,39.6,24.36,SE,135,5.4,11.9,73,0.00,,,0.00,WUHU216WMR200,2013-03-31 22:22:00,
2013-03-31 15:28:00,47.5,39.4,24.36,North,0,6.5,10.3,73,0.00,,,0.00,WUHU216WMR200,2013-03-31 22:28:00,
2013-03-31 15:32:00,47.3,39.8,24.36,SW,225,5.6,12.1,75,0.00,,,0.00,WUHU216WMR200,2013-03-31 22:32:00,
2013-03-31 15:37:00,47.3,40.2,24.36,SSE,157,6.5,12.1,76,0.00,,,0.00,WUHU216WMR200,2013-03-31 22:37:00,
2013-03-31 15:42:00,47.1,39.7,24.36,SSE,157,4.9,11.9,75,0.00,,,0.00,WUHU216WMR200,2013-03-31 22:42:00,
2013-03-31 15:47:00,47.1,39.3,24.36,NE,45,7.4,12.8,74,0.00,,,0.00,WUHU216WMR200,2013-03-31 22:47:00,
2013-03-31 15:53:00,47.3,39.8,24.36,ESE,112,7.2,12.8,75,0.00,,,0.00,WUHU216WMR200,2013-03-31 22:53:00,
2013-03-31 15:58:00,47.5,39.7,24.36,SW,225,7.4,13.2,74,0.00,,,0.00,WUHU216WMR200,2013-03-31 22:58:00,
2013-03-31 16:03:00,47.5,39.0,24.36,SE,135,5.8,13.2,72,0.00,,,0.00,WUHU216WMR200,2013-03-31 23:03:00,
2013-03-31 16:08:00,47.7,39.9,24.36,South,180,12.5,13.2,74,0.00,,,0.00,WUHU216WMR200,2013-03-31 23:08:00,
2013-03-31 16:13:00,47.7,39.6,24.36,South,180,7.4,13.0,73,0.00,,,0.00,WUHU216WMR200,2013-03-31 23:13:00,
2013-03-31 16:18:00,47.3,39.5,24.36,West,270,7.8,10.5,74,0.00,,,0.00,WUHU216WMR200,2013-03-31 23:18:00,
2013-03-31 16:23:00,47.3,40.5,24.36,SSE,157,2.9,10.5,77,0.00,,,0.00,WUHU216WMR200,2013-03-31 23:23:00,
2013-03-31 16:28:00,46.9,40.4,24.36,ENE,67,7.4,9.8,78,0.00,,,0.00,WUHU216WMR200,2013-03-31 23:28:00,
2013-03-31 16:33:00,47.1,40.6,24.36,NE,45,4.0,12.1,78,0.00,,,0.00,WUHU216WMR200,2013-03-31 23:33:00,
2013-03-31 16:38:00,47.3,40.8,24.36,SSE,157,2.7,12.3,78,0.00,,,0.00,WUHU216WMR200,2013-03-31 23:38:00,
2013-03-31 16:43:00,47.1,40.6,24.36,SSW,202,3.6,12.3,78,0.00,,,0.00,WUHU216WMR200,2013-03-31 23:43:00,
2013-03-31 16:48:00,46.9,39.8,24.36,SSE,157,4.3,13.2,76,0.00,,,0.00,WUHU216WMR200,2013-03-31 23:48:00,
2013-03-31 16:53:00,46.9,40.1,24.36,ESE,112,6.0,13.2,77,0.00,,,0.00,WUHU216WMR200,2013-03-31 23:53:00,
2013-03-31 16:58:00,46.6,40.8,24.36,ESE,112,4.3,11.2,80,0.00,,,0.00,WUHU216WMR200,2013-03-31 23:58:00,
2013-03-31 17:03:00,46.8,40.0,24.36,NE,45,6.3,11.2,77,0.00,,,0.00,WUHU216WMR200,2013-04-01 00:03:00,
2013-03-31 17:08:00,46.6,40.2,24.36,ENE,67,6.9,10.5,78,0.00,,,0.00,WUHU216WMR200,2013-04-01 00:08:00,
2013-03-31 17:13:00,46.8,39.7,24.36,WNW,292,3.6,10.7,76,0.00,,,0.00,WUHU216WMR200,2013-04-01 00:13:00,
2013-03-31 17:18:00,46.6,39.8,24.36,East,90,6.0,10.7,77,0.00,,,0.00,WUHU216WMR200,2013-04-01 00:18:00,
2013-03-31 17:23:00,46.6,40.2,24.36,SE,135,9.2,10.3,78,0.00,,,0.00,WUHU216WMR200,2013-04-01 00:23:00,
2013-03-31 17:28:00,46.6,40.8,24.36,SE,135,5.4,9.4,80,0.00,,,0.00,WUHU216WMR200,2013-04-01 00:28:00,
2013-03-31 17:33:00,46.4,40.0,24.36,West,270,10.5,11.2,78,0.00,,,0.00,WUHU216WMR200,2013-04-01 00:33:00,
2013-03-31 17:38:00,46.2,39.8,24.36,NE,45,5.6,12.8,78,0.00,,,0.00,WUHU216WMR200,2013-04-01 00:38:00,
2013-03-31 17:43:00,46.2,40.4,24.36,SSE,157,6.3,12.8,80,0.00,,,0.00,WUHU216WMR200,2013-04-01 00:43:00,
2013-03-31 17:48:00,46.0,40.2,24.36,West,270,6.3,12.8,80,0.00,,,0.00,WUHU216WMR200,2013-04-01 00:48:00,
2013-03-31 17:53:00,45.9,38.8,24.36,SSW,202,6.3,12.8,76,0.00,,,0.00,WUHU216WMR200,2013-04-01 00:53:00,
2013-03-31 17:58:00,45.9,39.8,24.36,NW,315,8.7,10.7,79,0.00,,,0.00,WUHU216WMR200,2013-04-01 00:58:00,
2013-03-31 18:03:00,45.9,40.1,24.36,ESE,112,9.8,9.8,80,0.00,,,0.00,WUHU216WMR200,2013-04-01 01:03:00,
2013-03-31 18:08:00,45.9,38.5,24.36,ESE,112,10.1,13.2,75,0.00,,,0.00,WUHU216WMR200,2013-04-01 01:08:00,
2013-03-31 18:13:00,45.7,38.3,24.36,SSW,202,11.9,13.2,75,0.00,,,0.00,WUHU216WMR200,2013-04-01 01:13:00,
2013-03-31 18:18:00,45.7,38.3,24.36,South,180,5.8,12.8,75,0.00,,,0.00,WUHU216WMR200,2013-04-01 01:18:00,
2013-03-31 18:23:00,45.3,38.2,24.36,SW,225,6.3,12.8,76,0.00,,,0.00,WUHU216WMR200,2013-04-01 01:23:00,
2013-03-31 18:28:00,45.3,37.9,24.36,SSE,157,4.9,11.9,75,0.00,,,0.00,WUHU216WMR200,2013-04-01 01:28:00,
2013-03-31 18:33:00,45.3,39.5,24.36,WSW,247,9.4,11.9,80,0.00,,,0.00,WUHU216WMR200,2013-04-01 01:33:00,
2013-03-31 18:38:00,45.1,39.3,24.36,NE,45,7.8,9.6,80,0.00,,,0.00,WUHU216WMR200,2013-04-01 01:38:00,
2013-03-31 18:43:00,45.1,39.0,24.36,SE,135,8.7,11.0,79,0.00,,,0.00,WUHU216WMR200,2013-04-01 01:43:00,
2013-03-31 18:48:00,45.0,37.9,24.36,SSE,157,9.8,14.5,76,0.00,,,0.00,WUHU216WMR200,2013-04-01 01:48:00,
2013-03-31 18:53:00,44.8,37.8,24.36,South,180,7.6,14.5,76,0.00,,,0.00,WUHU216WMR200,2013-04-01 01:53:00,
2013-03-31 18:58:00,44.6,38.5,24.36,SSE,157,5.4,15.2,79,0.00,,,0.00,WUHU216WMR200,2013-04-01 01:58:00,
2013-03-31 19:03:00,44.4,39.9,24.36,NNE,22,5.6,15.2,84,0.00,,,0.00,WUHU216WMR200,2013-04-01 02:03:00,
2013-03-31 19:08:00,44.1,38.3,24.36,South,180,6.7,12.8,80,0.00,,,0.00,WUHU216WMR200,2013-04-01 02:08:00,
2013-03-31 19:13:00,43.9,39.4,24.36,SE,135,7.6,13.0,84,0.00,,,0.00,WUHU216WMR200,2013-04-01 02:13:00,
2013-03-31 19:18:00,43.7,39.8,24.36,NNE,22,9.8,13.0,86,0.00,,,0.00,WUHU216WMR200,2013-04-01 02:18:00,
2013-03-31 19:23:00,43.5,40.1,24.36,SE,135,9.8,12.8,88,0.00,,,0.00,WUHU216WMR200,2013-04-01 02:23:00,
2013-03-31 19:28:00,43.5,40.7,24.36,SE,135,8.5,12.3,90,0.00,,,0.00,WUHU216WMR200,2013-04-01 02:28:00,
2013-03-31 19:33:00,43.3,40.8,24.36,SE,135,8.1,11.0,91,0.00,,,0.00,WUHU216WMR200,2013-04-01 02:33:00,
2013-03-31 19:38:00,43.2,40.7,24.36,SSE,157,5.4,11.2,91,0.00,,,0.00,WUHU216WMR200,2013-04-01 02:38:00,
2013-03-31 19:43:00,42.8,40.0,24.36,NE,45,10.1,12.8,90,0.00,,,0.00,WUHU216WMR200,2013-04-01 02:43:00,
2013-03-31 19:48:00,43.0,38.8,24.36,ESE,112,10.7,13.2,85,0.00,,,0.00,WUHU216WMR200,2013-04-01 02:48:00,
2013-03-31 19:53:00,43.0,38.5,24.36,West,270,14.5,20.6,84,0.00,,,0.00,WUHU216WMR200,2013-04-01 02:53:00,
2013-03-31 19:58:00,43.0,38.5,24.36,SSW,202,10.7,20.6,84,0.00,,,0.00,WUHU216WMR200,2013-04-01 02:58:00,
2013-03-31 20:03:00,43.0,37.6,24.36,SE,135,14.3,17.2,81,0.00,,,0.00,WUHU216WMR200,2013-04-01 03:03:00,
2013-03-31 20:08:00,43.0,37.9,24.36,North,0,12.3,17.7,82,0.00,,,0.00,WUHU216WMR200,2013-04-01 03:08:00,
2013-03-31 20:13:00,42.8,36.8,24.36,ESE,112,10.5,17.7,79,0.00,,,0.00,WUHU216WMR200,2013-04-01 03:13:00,
2013-03-31 20:18:00,43.0,37.9,24.36,NE,45,12.5,17.4,82,0.00,,,0.00,WUHU216WMR200,2013-04-01 03:18:00,
2013-03-31 20:23:00,42.4,38.8,24.36,South,180,10.1,19.9,87,0.00,,,0.00,WUHU216WMR200,2013-04-01 03:23:00,
2013-03-31 20:28:00,42.1,38.2,24.33,NNW,337,10.3,19.9,86,0.00,,,0.00,WUHU216WMR200,2013-04-01 03:28:00,
2013-03-31 20:33:00,42.3,37.8,24.33,ESE,112,15.2,17.4,84,0.00,,,0.00,WUHU216WMR200,2013-04-01 03:33:00,
2013-03-31 20:38:00,42.3,39.3,24.33,South,180,13.2,17.4,89,0.00,,,0.00,WUHU216WMR200,2013-04-01 03:38:00,
2013-03-31 20:43:00,41.7,38.1,24.36,ENE,67,14.3,22.4,87,0.00,,,0.00,WUHU216WMR200,2013-04-01 03:43:00,
2013-03-31 20:48:00,41.7,38.1,24.36,NNW,337,8.7,22.4,87,0.00,,,0.00,WUHU216WMR200,2013-04-01 03:48:00,
2013-03-31 20:53:00,41.9,39.7,24.36,North,0,10.5,17.2,92,0.00,,,0.00,WUHU216WMR200,2013-04-01 03:53:00,
2013-03-31 20:58:00,41.9,40.5,24.36,South,180,7.4,13.2,95,0.00,,,0.00,WUHU216WMR200,2013-04-01 03:58:00,
2013-03-31 21:00:00,41.9,40.8,24.36,SE,135,12.5,13.2,96,0.00,,,0.00,WUHU216WMR200,2013-04-01 04:00:00,
2013-03-31 21:05:00,41.2,39.8,24.36,ENE,67,7.6,14.8,95,0.00,,,0.00,WUHU216WMR200,2013-04-01 04:05:00,
2013-03-31 21:10:00,41.2,39.6,24.36,NE,45,9.8,17.2,94,0.00,,,0.00,WUHU216WMR200,2013-04-01 04:10:00,
2013-03-31 21:12:00,41.2,39.3,24.36,SSE,157,12.8,17.2,93,0.00,,,0.00,WUHU216WMR200,2013-04-01 04:12:00,
2013-03-31 21:17:00,41.2,38.4,24.36,East,90,17.4,22.1,90,0.00,,,0.00,WUHU216WMR200,2013-04-01 04:17:00,
2013-03-31 21:22:00,41.0,38.5,24.36,South,180,12.3,22.1,91,0.00,,,0.00,WUHU216WMR200,2013-04-01 04:22:00,
2013-03-31 21:27:00,41.0,38.0,24.36,East,90,11.0,19.5,89,0.00,,,0.00,WUHU216WMR200,2013-04-01 04:27:00,
2013-03-31 21:32:00,41.2,37.9,24.36,ENE,67,8.5,19.5,88,0.00,,,0.00,WUHU216WMR200,2013-04-01 04:32:00,
2013-03-31 21:37:00,41.0,38.8,24.36,North,0,15.2,15.4,92,0.00,,,0.00,WUHU216WMR200,2013-04-01 04:37:00,
2013-03-31 21:42:00,40.6,39.5,24.36,South,180,6.5,15.2,96,0.00,,,0.00,WUHU216WMR200,2013-04-01 04:42:00,
2013-03-31 21:48:00,40.6,39.5,24.36,SE,135,8.7,13.2,96,0.00,,,0.00,WUHU216WMR200,2013-04-01 04:48:00,
2013-03-31 21:52:00,40.5,39.4,24.36,South,180,9.8,14.8,96,0.00,,,0.00,WUHU216WMR200,2013-04-01 04:52:00,
2013-03-31 21:57:00,40.3,39.5,24.36,SSE,157,12.5,14.8,97,0.00,,,0.00,WUHU216WMR200,2013-04-01 04:57:00,
2013-03-31 22:02:00,40.1,39.3,24.36,ESE,112,12.3,15.4,97,0.00,,,0.00,WUHU216WMR200,2013-04-01 05:02:00,
2013-03-31 22:08:00,40.1,39.3,24.36,SE,135,7.8,15.4,97,0.00,,,0.00,WUHU216WMR200,2013-04-01 05:08:00,
2013-03-31 22:13:00,40.3,39.5,24.36,ESE,112,10.7,12.3,97,0.00,,,0.00,WUHU216WMR200,2013-04-01 05:13:00,
2013-03-31 22:18:00,40.3,39.8,24.33,East,90,6.0,13.2,98,0.00,,,0.00,WUHU216WMR200,2013-04-01 05:18:00,
2013-03-31 22:23:00,39.9,39.4,24.33,SSE,157,12.5,17.0,98,0.00,,,0.00,WUHU216WMR200,2013-04-01 05:23:00,
2013-03-31 22:28:00,39.9,39.4,24.33,SSE,157,10.1,17.0,98,0.00,,,0.00,WUHU216WMR200,2013-04-01 05:28:00,
2013-03-31 22:33:00,39.9,39.4,24.36,SE,135,10.1,12.5,98,0.00,,,0.00,WUHU216WMR200,2013-04-01 05:33:00,
2013-03-31 22:38:00,39.7,39.2,24.36,East,90,8.5,12.5,98,0.00,,,0.00,WUHU216WMR200,2013-04-01 05:38:00,
2013-03-31 22:43:00,39.9,39.4,24.36,SSW,202,7.8,12.5,98,0.00,,,0.00,WUHU216WMR200,2013-04-01 05:43:00,
2013-03-31 22:48:00,39.7,39.2,24.36,ESE,112,5.8,12.8,98,0.00,,,0.00,WUHU216WMR200,2013-04-01 05:48:00,
2013-03-31 22:53:00,39.6,39.1,24.36,ESE,112,7.6,14.5,98,0.00,,,0.00,WUHU216WMR200,2013-04-01 05:53:00,
2013-03-31 22:58:00,39.9,39.4,24.36,SSW,202,7.6,14.5,98,0.00,,,0.00,WUHU216WMR200,2013-04-01 05:58:00,
2013-03-31 23:03:00,39.9,39.4,24.36,East,90,10.7,14.5,98,0.00,,,0.00,WUHU216WMR200,2013-04-01 06:03:00,
2013-03-31 23:08:00,39.6,39.1,24.36,SSW,202,10.3,15.2,98,0.00,,,0.00,WUHU216WMR200,2013-04-01 06:08:00,
2013-03-31 23:13:00,39.6,39.1,24.36,ESE,112,11.0,15.2,98,0.00,,,0.00,WUHU216WMR200,2013-04-01 06:13:00,
2013-03-31 23:18:00,39.6,39.1,24.36,SSE,157,8.1,13.2,98,0.00,,,0.00,WUHU216WMR200,2013-04-01 06:18:00,
2013-03-31 23:23:00,39.4,38.9,24.36,South,180,8.7,13.2,98,0.00,,,0.00,WUHU216WMR200,2013-04-01 06:23:00,
2013-03-31 23:28:00,39.2,38.7,24.36,SE,135,11.0,14.8,98,0.00,,,0.00,WUHU216WMR200,2013-04-01 06:28:00,
2013-03-31 23:33:00,39.2,38.7,24.36,ESE,112,9.8,14.8,98,0.00,,,0.00,WUHU216WMR200,2013-04-01 06:33:00,
2013-03-31 23:38:00,39.4,38.6,24.36,SSE,157,9.6,14.3,97,0.00,,,0.00,WUHU216WMR200,2013-04-01 06:38:00,
2013-03-31 23:43:00,39.6,39.1,24.36,SSE,157,10.3,16.8,98,0.00,,,0.00,WUHU216WMR200,2013-04-01 06:43:00,
2013-03-31 23:48:00,39.6,39.1,24.36,SSE,157,6.5,16.8,98,0.00,,,0.00,WUHU216WMR200,2013-04-01 06:48:00,
2013-03-31 23:53:00,39.2,38.7,24.36,SSW,202,10.1,14.8,98,0.00,,,0.00,WUHU216WMR200,2013-04-01 06:53:00,
2013-03-31 23:58:00,39.2,38.7,24.36,South,180,8.1,13.2,98,0.00,,,0.00,WUHU216WMR200,2013-04-01 06:58:00,